{"data":{"norad_id":68220,"epoch":"2026-09-19T09:19:10.108416Z","epoch_age_seconds":148190,"freshness":"FRESH","line1":"1 68220U 26053P   26262.38831144  .00012126  00000+0  37689-3 0  9991","line2":"2 68220  97.2854 136.1891 0001286 100.7942 259.3446 15.33481228 29904","mean_motion":15.33481228,"eccentricity":0.0001286,"inclination_deg":97.2854,"raan_deg":136.1891,"arg_perigee_deg":100.7942,"mean_anomaly_deg":259.3446,"bstar":0.00037689,"rev_number":2990,"period_min":93.903986153002,"perigee_km":464.55530415173,"apogee_km":466.31547096981,"semimajor_km":6843.5723875608,"source":"CELESTRAK","updated_at":"2026-09-20T09:00:43.835419Z"}}